Location: Dana
(41.8364°N, 106.7042°W)
Time: 12:08:55
(UTC+00:00)

ISS - Pass Details

Date: 22 April 2026
Orbit: 414 x 424 km, 51.6° (Epoch: 12 May)

Event Time Altitude Azimuth Distance (km) Brightness Sun altitude
Exits shadow 11:14:39 15° 270° (W) 1,213 -2.0 -11.3°
Maximum altitude 11:17:01 37° 334° (NNW) 673 -2.7 -10.9°
Drops below altitude 10° 11:20:12 10° 43° (NE) 1,506 0.3 -10.4°
Sets 11:22:24 0° 52° (NE) 2,375 2.0 -10.0°
